La Grange, GA

7:48 PM EDT on April 26, 2018 (GMT -0400)
Lagrange-Callaway

Weather History for KLGC - February, 2014

Change the Weather History Date:

Friday, February 21, 2014

  Actual Average Record
Temperature  
Mean Temperature 52 °F -  
Max Temperature 67 °F 63 °F 82 °F (2018)
Min Temperature 34 °F 37 °F 17 °F (1958)
Degree Days  
Heating Degree Days 14    
Growing Degree Days 2 (Base 50)    
Moisture  
Dew Point 41 °F    
Average Humidity 63    
Maximum Humidity 97    
Minimum Humidity 24    
Precipitation  
Precipitation 0.00 in - - ()
Sea Level Pressure  
Sea Level Pressure 30.01 in    
Wind  
Wind Speed 9 mph (NW)    
Max Wind Speed 18 mph    
Max Gust Speed 25 mph    
Visibility 10 miles    
Events Rain , Thunderstorm    
Averages and records for this station are not official NWS values.
T = Trace of Precipitation, MM = Missing Value Source: NWS Daily Summary

Daily Weather History Graph

Daily Weather History Graph

Search for Another Location

Airport or City:

Astronomy

Feb. 21, 2014 Rise Set
Actual Time 7:17 AM EST 6:30 PM EST
Civil Twilight 6:52 AM EST 6:55 PM EST
Nautical Twilight 6:23 AM EST 7:24 PM EST
Astronomical Twilight 5:54 AM EST 7:53 PM EST
Moon 12:03 AM EST (2/21) 11:02 AM EST (2/21)
Length of Visible Light 12h 03m
Length of Day
11h 13m
Waning Gibbous, 61% of the Moon is Illuminated
Feb 21
Waning Gibbous
Feb 22
Last Quarter
Mar 1
New
Mar 8
First Quarter
Mar 16
Full

Hourly Weather History & Observations

Time (EST) Temp. Windchill Dew Point Humidity Pressure Visibility Wind Dir Wind Speed Gust Speed Precip Events Conditions
12:15 AM 67.1 °F - 61.0 °F 81% 29.89 in 10.0 mi South 10.4 mph 18.4 mph N/A   Clear
12:35 AM 67.1 °F - 61.7 °F 83% 29.89 in 10.0 mi South 10.4 mph - N/A   Scattered Clouds
12:55 AM 67.1 °F - 62.1 °F 84% 29.90 in 10.0 mi South 12.7 mph 19.6 mph N/A   Mostly Cloudy
1:15 AM 67.1 °F - 62.2 °F 84% 29.89 in 10.0 mi South 15.0 mph 18.4 mph N/A   Overcast
1:35 AM 67.3 °F - 62.6 °F 85% 29.89 in 10.0 mi SSW 12.7 mph 19.6 mph N/A   Overcast
1:55 AM 67.5 °F - 63.3 °F 87% 29.89 in 10.0 mi SSW 12.7 mph 18.4 mph N/A   Overcast
2:10 AM 67.6 °F - 63.7 °F 87% 29.88 in 10.0 mi SSW 11.5 mph 19.6 mph N/A   Overcast
2:35 AM 67.5 °F - 63.9 °F 88% 29.86 in 10.0 mi SSW 12.7 mph 23.0 mph N/A   Overcast
2:55 AM 67.3 °F - 64.0 °F 89% 29.86 in 2.5 mi SSW 12.7 mph 18.4 mph N/A Rain , Thunderstorm Heavy Thunderstorms and Rain
3:15 AM 65.7 °F - 64.2 °F 95% 29.85 in 7.0 mi SSW 8.1 mph - N/A Rain , Thunderstorm Light Thunderstorms and Rain
3:35 AM 66.0 °F - 64.6 °F 95% 29.85 in 7.0 mi SSW 10.4 mph - N/A Rain , Thunderstorm Light Thunderstorms and Rain
3:55 AM 65.8 °F - 64.9 °F 97% 29.84 in 7.0 mi WNW 18.4 mph 25.3 mph N/A Rain , Thunderstorm Thunderstorms and Rain
4:15 AM 64.6 °F - 61.9 °F 91% 29.84 in 10.0 mi West 11.5 mph 16.1 mph N/A Rain , Thunderstorm Light Thunderstorms and Rain
4:35 AM 63.9 °F - 63.0 °F 97% 29.87 in 5.0 mi SW 9.2 mph - N/A Rain , Thunderstorm Rain
4:55 AM 64.2 °F - 61.7 °F 91% 29.88 in 10.0 mi West 16.1 mph 23.0 mph N/A Rain , Thunderstorm Rain
5:15 AM 62.6 °F - 60.4 °F 93% 29.88 in 10.0 mi West 9.2 mph - N/A Rain , Thunderstorm Thunderstorms and Rain
5:35 AM 62.1 °F - 60.3 °F 94% 29.91 in 10.0 mi WSW 6.9 mph - N/A Rain Rain
5:55 AM 61.3 °F - 60.4 °F 97% 29.92 in 7.0 mi West 4.6 mph - N/A Rain , Thunderstorm Heavy Thunderstorms and Rain
6:15 AM 61.3 °F - 60.4 °F 97% 29.90 in 7.0 mi WNW 9.2 mph - N/A Rain , Thunderstorm Rain
6:35 AM 52.9 °F - 50.5 °F 92% 29.95 in 10.0 mi NW 16.1 mph 21.9 mph N/A Rain , Thunderstorm Light Thunderstorms and Rain
6:50 AM 52.7 °F - 50.9 °F 94% 29.97 in 10.0 mi NW 15.0 mph - N/A Rain Light Rain
7:15 AM 51.4 °F - 48.4 °F 89% 29.99 in 10.0 mi NNW 11.5 mph 20.7 mph N/A   Overcast
7:35 AM 50.2 °F - 43.7 °F 78% 29.99 in 10.0 mi NNW 9.2 mph 16.1 mph N/A   Overcast
7:55 AM 49.3 °F - 42.6 °F 78% 30.00 in 10.0 mi NNW 8.1 mph 17.3 mph N/A   Overcast
8:15 AM 49.1 °F - 42.1 °F 77% 30.02 in 10.0 mi NNW 6.9 mph - N/A   Overcast
8:35 AM 49.1 °F - 40.6 °F 73% 30.03 in 10.0 mi North 10.4 mph - N/A   Overcast
8:55 AM 49.1 °F - 39.4 °F 69% 30.04 in 10.0 mi North 8.1 mph - N/A   Overcast
9:15 AM 49.3 °F - 38.8 °F 67% 30.04 in 10.0 mi North 8.1 mph 16.1 mph N/A   Overcast
9:35 AM 49.8 °F - 36.1 °F 59% 30.05 in 10.0 mi NNW 11.5 mph 19.6 mph N/A   Overcast
9:55 AM 51.1 °F - 34.5 °F 53% 30.05 in 10.0 mi North 11.5 mph 21.9 mph N/A   Scattered Clouds
10:15 AM 51.4 °F - 32.0 °F 47% 30.06 in 10.0 mi North 8.1 mph 18.4 mph N/A   Scattered Clouds
10:35 AM 53.1 °F - 32.4 °F 45% 30.07 in 10.0 mi North 8.1 mph - N/A   Clear
10:55 AM 53.6 °F - 31.3 °F 43% 30.07 in 10.0 mi NNE 10.4 mph 18.4 mph N/A   Clear
11:15 AM 54.1 °F - 31.3 °F 42% 30.06 in 10.0 mi NNW 15.0 mph - N/A   Clear
11:30 AM 54.7 °F - 31.8 °F 42% 30.06 in 10.0 mi North 6.9 mph 17.3 mph N/A   Clear
11:55 AM 56.1 °F - 27.9 °F 34% 30.06 in 10.0 mi NNW 9.2 mph 18.4 mph N/A   Clear
12:15 PM 57.4 °F - 28.2 °F 33% 30.06 in 10.0 mi NNE 6.9 mph - N/A   Clear
12:35 PM 58.1 °F - 30.2 °F 35% 30.06 in 10.0 mi NNW 10.4 mph - N/A   Clear
12:55 PM 57.7 °F - 30.2 °F 35% 30.05 in 10.0 mi NW 4.6 mph - N/A   Clear
1:15 PM 59.2 °F - 30.7 °F 34% 30.05 in 10.0 mi North 6.9 mph - N/A   Clear
1:35 PM 59.2 °F - 30.2 °F 33% 30.04 in 10.0 mi WNW 10.4 mph 16.1 mph N/A   Clear
1:55 PM 59.9 °F - 29.1 °F 31% 30.04 in 10.0 mi NNW 12.7 mph 18.4 mph N/A   Clear
2:15 PM 60.4 °F - 30.6 °F 32% 30.04 in 10.0 mi WNW 6.9 mph 19.6 mph N/A   Clear
2:35 PM 61.3 °F - 31.8 °F 33% 30.04 in 10.0 mi NW 8.1 mph 18.4 mph N/A   Clear
2:55 PM 61.9 °F - 31.3 °F 32% 30.04 in 10.0 mi NW 10.4 mph - N/A   Clear
3:15 PM 61.7 °F - 29.8 °F 30% 30.04 in 10.0 mi North 6.9 mph 17.3 mph N/A   Clear
3:35 PM 62.8 °F - 30.7 °F 30% 30.03 in 10.0 mi NW 15.0 mph - N/A   Clear
3:55 PM 62.2 °F - 26.8 °F 26% 30.04 in 10.0 mi NW 9.2 mph 17.3 mph N/A   Clear
4:15 PM 62.8 °F - 25.9 °F 25% 30.04 in 10.0 mi NNW 9.2 mph - N/A   Clear
4:35 PM 62.6 °F - 27.0 °F 26% 30.04 in 10.0 mi WNW 9.2 mph - N/A   Clear
4:55 PM 62.4 °F - 25.9 °F 25% 30.04 in 10.0 mi WNW 11.5 mph - N/A   Clear
5:15 PM 61.7 °F - 24.8 °F 24% 30.04 in 10.0 mi NW 10.4 mph - N/A   Clear
5:35 PM 61.0 °F - 24.1 °F 24% 30.04 in 10.0 mi NNW 6.9 mph - N/A   Clear
5:55 PM 60.3 °F - 23.4 °F 24% 30.05 in 10.0 mi North 4.6 mph - N/A   Clear
6:15 PM 57.9 °F - 25.5 °F 29% 30.05 in 10.0 mi NNW 5.8 mph - N/A   Clear
6:35 PM 56.3 °F - 26.6 °F 32% 30.06 in 10.0 mi NNW 3.5 mph - N/A   Clear
6:55 PM 52.3 °F - 30.0 °F 42% 30.06 in 10.0 mi NNW 3.5 mph - N/A   Clear
7:15 PM 50.0 °F - 30.7 °F 48% 30.06 in 10.0 mi Calm Calm - N/A   Clear
7:35 PM 48.0 °F - 32.4 °F 55% 30.07 in 10.0 mi Calm Calm - N/A   Clear
7:55 PM 46.9 °F - 33.1 °F 59% 30.07 in 10.0 mi NNW 4.6 mph - N/A   Clear
8:15 PM 44.2 °F - 32.2 °F 63% 30.07 in 10.0 mi Calm Calm - N/A   Clear
8:35 PM 42.8 °F - 32.4 °F 67% 30.08 in 10.0 mi Calm Calm - N/A   Clear
8:55 PM 41.5 °F - 33.1 °F 72% 30.07 in 10.0 mi Calm Calm - N/A   Clear
9:15 PM 42.4 °F 40.7 °F 33.4 °F 70% 30.07 in 10.0 mi North 3.5 mph - N/A   Clear
9:35 PM 39.9 °F - 32.5 °F 75% 30.08 in 10.0 mi Calm Calm - N/A   Clear
9:55 PM 39.7 °F - 33.8 °F 79% 30.09 in 10.0 mi Calm Calm - N/A   Clear
10:15 PM 38.3 °F - 32.7 °F 80% 30.09 in 10.0 mi Calm Calm - N/A   Clear
10:35 PM 37.4 °F - 32.4 °F 82% 30.09 in 10.0 mi Calm Calm - N/A   Clear
10:55 PM 36.3 °F - 32.0 °F 84% 30.10 in 10.0 mi Calm Calm - N/A   Clear
11:15 PM 37.9 °F - 33.3 °F 83% 30.11 in 10.0 mi Calm Calm - N/A   Clear
11:35 PM 36.5 °F - 31.8 °F 83% 30.11 in 10.0 mi Calm Calm - N/A   Clear
11:55 PM 34.7 °F - 31.8 °F 89% 30.11 in 10.0 mi Calm Calm - N/A   Clear